| time (UTC) | temp F | wind direction | speed MPH | gust MPH | rain 1hr in | rain 24hr in | rain mn in | humidity % | barometer mb |
| 20260507120203 | 54 | 26 | 1.0 | 3.0 | 0.01 | 0.22 | 0.05 | 92 | 1013.4 |
| 20260507115703 | 54 | 23 | 1.0 | 2.0 | 0.01 | 0.23 | 0.05 | 92 | 1013.2 |
| 20260507115202 | 54 | 13 | 1.0 | 2.0 | 0.01 | 0.24 | 0.05 | 92 | 1013.3 |
| 20260507114702 | 54 | 38 | 1.0 | 2.0 | 0.01 | 0.25 | 0.05 | 92 | 1013.5 |
| 20260507114202 | 54 | 317 | 1.0 | 3.0 | 0.01 | 0.25 | 0.05 | 92 | 1013.6 |
| 20260507113703 | 54 | 333 | 1.0 | 2.0 | 0.01 | 0.25 | 0.05 | 92 | 1013.5 |
| 20260507113202 | 54 | 7 | 0.0 | 2.0 | 0.02 | 0.25 | 0.05 | 92 | 1013.3 |
| 20260507112702 | 54 | 30 | 1.0 | 2.0 | 0.02 | 0.26 | 0.05 | 92 | 1013.3 |
| 20260507111702 | 54 | 284 | 1.0 | 2.0 | 0.01 | 0.25 | 0.04 | 92 | 1013.1 |
| 20260507111202 | 54 | 287 | 1.0 | 3.0 | 0.01 | 0.25 | 0.04 | 92 | 1013.0 |
| 20260507110703 | 54 | 28 | 1.0 | 3.0 | 0.01 | 0.25 | 0.04 | 92 | 1012.8 |
| 20260507110202 | 54 | 19 | 2.0 | 5.0 | 0.01 | 0.25 | 0.04 | 92 | 1012.8 |
| 20260507105703 | 54 | 15 | 2.0 | 3.0 | 0.01 | 0.25 | 0.04 | 92 | 1012.8 |
| 20260507104703 | 55 | 15 | 2.0 | 5.0 | 0.01 | 0.25 | 0.04 | 92 | 1012.6 |
| 20260507104203 | 55 | 348 | 2.0 | 3.0 | 0.01 | 0.25 | 0.04 | 92 | 1012.3 |
| 20260507103702 | 55 | 23 | 1.0 | 5.0 | 0.01 | 0.25 | 0.04 | 92 | 1012.4 |
| 20260507103202 | 55 | 21 | 2.0 | 3.0 | 0.00 | 0.24 | 0.03 | 92 | 1012.1 |
| 20260507102703 | 55 | 5 | 2.0 | 3.0 | 0.00 | 0.24 | 0.03 | 92 | 1012.2 |
| 20260507102203 | 55 | 23 | 1.0 | 3.0 | 0.00 | 0.24 | 0.03 | 92 | 1012.3 |
| 20260507101202 | 55 | 26 | 1.0 | 2.0 | 0.00 | 0.24 | 0.03 | 92 | 1012.6 |
| 20260507100703 | 55 | 295 | 1.0 | 3.0 | 0.00 | 0.24 | 0.03 | 92 | 1012.4 |
| 20260507100202 | 55 | 4 | 1.0 | 3.0 | 0.00 | 0.24 | 0.03 | 92 | 1012.4 |
| 20260507095702 | 55 | 333 | 1.0 | 3.0 | 0.00 | 0.24 | 0.03 | 92 | 1012.3 |
| 20260507094703 | 56 | 22 | 1.0 | 3.0 | 0.00 | 0.24 | 0.03 | 92 | 1012.1 |
| 20260507094202 | 56 | 15 | 2.0 | 3.0 | 0.00 | 0.24 | 0.03 | 92 | 1012.2 |
| 20260507093702 | 56 | 9 | 1.0 | 3.0 | 0.00 | 0.24 | 0.03 | 92 | 1012.1 |
| 20260507093203 | 56 | 1 | 1.0 | 3.0 | 0.00 | 0.24 | 0.03 | 92 | 1011.9 |
| 20260507092703 | 56 | 1 | 2.0 | 5.0 | 0.00 | 0.24 | 0.03 | 92 | 1011.8 |
| 20260507092203 | 56 | 33 | 2.0 | 3.0 | 0.00 | 0.24 | 0.03 | 92 | 1011.8 |
| 20260507091703 | 56 | 45 | 2.0 | 5.0 | 0.00 | 0.24 | 0.03 | 92 | 1012.0 |
| 20260507091203 | 57 | 11 | 1.0 | 5.0 | 0.00 | 0.24 | 0.03 | 92 | 1011.7 |
| 20260507090703 | 57 | 2 | 2.0 | 3.0 | 0.00 | 0.24 | 0.03 | 92 | 1012.0 |
| 20260507090203 | 57 | 36 | 2.0 | 5.0 | 0.00 | 0.24 | 0.03 | 92 | 1012.1 |
| 20260507085703 | 57 | 21 | 3.0 | 6.0 | 0.00 | 0.24 | 0.03 | 91 | 1012.2 |
| 20260507085203 | 58 | 27 | 3.0 | 10.0 | 0.00 | 0.24 | 0.03 | 91 | 1012.1 |
| 20260507084704 | 58 | 27 | 3.0 | 9.0 | 0.00 | 0.24 | 0.03 | 92 | 1012.1 |
| 20260507084202 | 59 | 351 | 3.0 | 8.0 | 0.01 | 0.24 | 0.03 | 93 | 1012.0 |
| 20260507083703 | 60 | 322 | 2.0 | 3.0 | 0.01 | 0.24 | 0.03 | 93 | 1011.7 |
| 20260507082702 | 60 | 306 | 2.0 | 3.0 | 0.01 | 0.24 | 0.03 | 93 | 1011.5 |
| 20260507082202 | 60 | 340 | 1.0 | 3.0 | 0.01 | 0.24 | 0.03 | 93 | 1011.4 |
| 20260507081702 | 60 | 352 | 2.0 | 5.0 | 0.02 | 0.24 | 0.03 | 93 | 1011.4 |
| 20260507080202 | 60 | 40 | 1.0 | 3.0 | 0.03 | 0.24 | 0.03 | 93 | 1012.1 |
| 20260507075702 | 60 | 310 | 1.0 | 3.0 | 0.03 | 0.24 | 0.03 | 93 | 1012.1 |
| 20260507075203 | 60 | 263 | 1.0 | 3.0 | 0.03 | 0.24 | 0.03 | 93 | 1012.0 |
| 20260507074702 | 61 | 322 | 1.0 | 3.0 | 0.03 | 0.24 | 0.03 | 93 | 1011.9 |
| 20260507074203 | 61 | 321 | 1.0 | 3.0 | 0.02 | 0.23 | 0.02 | 93 | 1011.9 |
| 20260507073703 | 61 | 11 | 2.0 | 5.0 | 0.02 | 0.23 | 0.02 | 93 | 1011.8 |
| 20260507073203 | 61 | 15 | 1.0 | 6.0 | 0.02 | 0.23 | 0.02 | 92 | 1011.8 |
| 20260507072703 | 61 | 43 | 3.0 | 6.0 | 0.02 | 0.23 | 0.02 | 93 | 1011.6 |
| 20260507072203 | 61 | 17 | 2.0 | 3.0 | 0.02 | 0.23 | 0.02 | 93 | 1011.8 |
| 20260507071702 | 62 | 23 | 2.0 | 3.0 | 0.01 | 0.23 | 0.01 | 93 | 1011.8 |
| 20260507071203 | 62 | 17 | 2.0 | 3.0 | 0.00 | 0.22 | 0.00 | 93 | 1012.0 |
| 20260507070702 | 62 | 7 | 1.0 | 3.0 | 0.00 | 0.22 | 0.00 | 93 | 1011.7 |
| 20260507070203 | 62 | 330 | 1.0 | 2.0 | 0.00 | 0.22 | 0.00 | 93 | 1011.9 |
| 20260507065703 | 62 | 287 | 1.0 | 3.0 | 0.00 | 0.22 | 0.00 | 93 | 1012.2 |
| 20260507065202 | 62 | 306 | 1.0 | 3.0 | 0.00 | 0.22 | 0.00 | 93 | 1012.0 |
| 20260507064702 | 62 | 249 | 1.0 | 2.0 | 0.00 | 0.22 | 0.00 | 93 | 1012.0 |
| 20260507064202 | 62 | 286 | 1.0 | 3.0 | 0.00 | 0.22 | 0.00 | 93 | 1012.0 |
| 20260507063703 | 62 | 281 | 2.0 | 3.0 | 0.00 | 0.22 | 0.00 | 93 | 1012.0 |
| 20260507062703 | 62 | 276 | 1.0 | 3.0 | 0.00 | 0.22 | 0.00 | 93 | 1012.1 |
| 20260507061702 | 62 | 282 | 2.0 | 3.0 | 0.00 | 0.22 | 0.00 | 93 | 1012.6 |
| 20260507060703 | 62 | 24 | 1.0 | 3.0 | 0.00 | 0.22 | 0.00 | 93 | 1012.6 |
| 20260507060203 | 62 | 43 | 1.0 | 3.0 | 0.00 | 0.22 | 0.00 | 93 | 1012.7 |
| 20260507055703 | 62 | 110 | 1.0 | 2.0 | 0.00 | 0.22 | 0.00 | 92 | 1012.9 |
| 20260507055202 | 62 | 7 | 1.0 | 2.0 | 0.00 | 0.22 | 0.00 | 92 | 1012.8 |
| 20260507054703 | 62 | 135 | 0.0 | 1.0 | 0.00 | 0.22 | 0.00 | 92 | 1012.8 |
| 20260507054203 | 62 | 214 | 0.0 | 2.0 | 0.00 | 0.22 | 0.00 | 92 | 1012.9 |
| 20260507053703 | 62 | 269 | 0.0 | 1.0 | 0.00 | 0.22 | 0.00 | 92 | 1012.7 |
| 20260507053203 | 62 | 66 | 0.0 | 1.0 | 0.00 | 0.22 | 0.00 | 92 | 1012.5 |
| 20260507052703 | 62 | 272 | 0.0 | 2.0 | 0.00 | 0.22 | 0.00 | 92 | 1012.6 |
| 20260507052202 | 62 | 291 | 0.0 | 2.0 | 0.00 | 0.22 | 0.00 | 92 | 1012.1 |
| 20260507051703 | 62 | 171 | 0.0 | 1.0 | 0.00 | 0.22 | 0.00 | 92 | 1012.7 |
| 20260507051202 | 62 | 261 | 0.0 | 2.0 | 0.00 | 0.22 | 0.00 | 92 | 1012.6 |
| 20260507050202 | 62 | 171 | 1.0 | 2.0 | 0.00 | 0.22 | 0.00 | 92 | 1012.7 |
| 20260507045703 | 62 | 143 | 1.0 | 3.0 | 0.00 | 0.22 | 0.00 | 92 | 1012.4 |
| 20260507045203 | 62 | 141 | 1.0 | 3.0 | 0.00 | 0.22 | 0.00 | 92 | 1012.8 |
| 20260507044703 | 62 | 147 | 1.0 | 2.0 | 0.00 | 0.22 | 0.00 | 92 | 1013.0 |
| 20260507044203 | 62 | 166 | 1.0 | 2.0 | 0.00 | 0.22 | 0.00 | 92 | 1013.1 |
| 20260507043703 | 62 | 257 | 2.0 | 3.0 | 0.00 | 0.22 | 0.00 | 92 | 1013.1 |
| 20260507042702 | 62 | 187 | 2.0 | 3.0 | 0.00 | 0.22 | 0.00 | 92 | 1013.5 |
| 20260507042203 | 62 | 219 | 1.0 | 6.0 | 0.00 | 0.22 | 0.00 | 92 | 1013.3 |
| 20260507041703 | 62 | 221 | 2.0 | 8.0 | 0.00 | 0.22 | 0.00 | 92 | 1013.4 |
| 20260507041203 | 62 | 218 | 2.0 | 5.0 | 0.00 | 0.22 | 0.00 | 92 | 1013.5 |
| 20260507040702 | 62 | 180 | 1.0 | 3.0 | 0.00 | 0.22 | 0.00 | 92 | 1013.4 |
| 20260507035703 | 62 | 172 | 2.0 | 6.0 | 0.00 | 0.22 | 0.22 | 92 | 1013.6 |
| 20260507035203 | 62 | 189 | 2.0 | 3.0 | 0.00 | 0.22 | 0.22 | 92 | 1013.7 |
| 20260507034703 | 62 | 210 | 3.0 | 7.0 | 0.00 | 0.22 | 0.22 | 92 | 1013.6 |
| 20260507034203 | 62 | 226 | 3.0 | 7.0 | 0.00 | 0.22 | 0.22 | 92 | 1013.5 |
| 20260507033703 | 62 | 222 | 3.0 | 9.0 | 0.00 | 0.22 | 0.22 | 92 | 1013.7 |
| 20260507032703 | 62 | 191 | 1.0 | 6.0 | 0.00 | 0.22 | 0.22 | 92 | 1013.4 |
| 20260507032203 | 62 | 171 | 3.0 | 7.0 | 0.00 | 0.22 | 0.22 | 92 | 1013.5 |
| 20260507031703 | 62 | 169 | 2.0 | 5.0 | 0.00 | 0.22 | 0.22 | 92 | 1013.9 |
| 20260507031202 | 62 | 203 | 2.0 | 6.0 | 0.00 | 0.22 | 0.22 | 92 | 1013.6 |
| 20260507030703 | 62 | 196 | 1.0 | 5.0 | 0.00 | 0.22 | 0.22 | 92 | 1013.6 |
| 20260507030203 | 62 | 203 | 1.0 | 3.0 | 0.00 | 0.22 | 0.22 | 92 | 1013.4 |
| 20260507025703 | 62 | 170 | 1.0 | 3.0 | 0.01 | 0.22 | 0.22 | 92 | 1013.7 |
| 20260507025203 | 62 | 272 | 1.0 | 3.0 | 0.01 | 0.22 | 0.22 | 92 | 1013.5 |
| 20260507024703 | 62 | 210 | 1.0 | 3.0 | 0.01 | 0.22 | 0.22 | 92 | 1013.5 |
| 20260507024203 | 62 | 194 | 1.0 | 3.0 | 0.02 | 0.22 | 0.22 | 91 | 1013.4 |
| 20260507023703 | 62 | 181 | 2.0 | 6.0 | 0.04 | 0.22 | 0.22 | 91 | 1013.5 |
| 20260507023203 | 62 | 209 | 1.0 | 3.0 | 0.04 | 0.22 | 0.22 | 91 | 1013.4 |
| 20260507022702 | 62 | 239 | 1.0 | 3.0 | 0.05 | 0.22 | 0.22 | 91 | 1013.0 |
| 20260507022202 | 62 | 160 | 1.0 | 3.0 | 0.05 | 0.22 | 0.22 | 91 | 1013.1 |
| 20260507021702 | 62 | 211 | 2.0 | 3.0 | 0.05 | 0.22 | 0.22 | 91 | 1013.2 |
| 20260507021203 | 62 | 180 | 1.0 | 3.0 | 0.05 | 0.22 | 0.22 | 90 | 1013.4 |
| 20260507020703 | 63 | 277 | 1.0 | 5.0 | 0.05 | 0.22 | 0.22 | 90 | 1013.5 |
| 20260507020203 | 63 | 169 | 1.0 | 3.0 | 0.05 | 0.22 | 0.22 | 90 | 1013.7 |
| 20260507015703 | 63 | 184 | 2.0 | 6.0 | 0.04 | 0.21 | 0.21 | 90 | 1013.9 |
| 20260507015203 | 63 | 196 | 3.0 | 7.0 | 0.05 | 0.21 | 0.21 | 90 | 1013.9 |
| 20260507014703 | 63 | 153 | 3.0 | 10.0 | 0.05 | 0.21 | 0.21 | 90 | 1014.4 |
| 20260507014202 | 63 | 207 | 2.0 | 9.0 | 0.05 | 0.20 | 0.20 | 89 | 1014.6 |
| 20260507013703 | 63 | 226 | 2.0 | 7.0 | 0.04 | 0.18 | 0.18 | 89 | 1014.5 |
| 20260507012703 | 63 | 192 | 3.0 | 7.0 | 0.05 | 0.17 | 0.17 | 88 | 1014.4 |
| 20260507012202 | 64 | 207 | 2.0 | 5.0 | 0.05 | 0.17 | 0.17 | 88 | 1014.2 |
| 20260507011703 | 64 | 180 | 2.0 | 3.0 | 0.05 | 0.17 | 0.17 | 87 | 1014.1 |
| 20260507011203 | 64 | 203 | 2.0 | 6.0 | 0.05 | 0.17 | 0.17 | 87 | 1014.1 |
| 20260507010703 | 64 | 206 | 1.0 | 2.0 | 0.05 | 0.17 | 0.17 | 87 | 1013.7 |
| 20260507010203 | 64 | 265 | 1.0 | 3.0 | 0.05 | 0.17 | 0.17 | 86 | 1013.7 |
| 20260507005702 | 65 | 188 | 2.0 | 6.0 | 0.05 | 0.17 | 0.17 | 86 | 1013.5 |
| 20260507005202 | 65 | 219 | 1.0 | 6.0 | 0.04 | 0.16 | 0.16 | 86 | 1013.5 |
| 20260507004702 | 65 | 215 | 2.0 | 5.0 | 0.04 | 0.16 | 0.16 | 86 | 1013.4 |
| 20260507004203 | 65 | 227 | 1.0 | 3.0 | 0.03 | 0.15 | 0.15 | 86 | 1013.5 |
| 20260507003702 | 66 | 165 | 1.0 | 3.0 | 0.02 | 0.14 | 0.14 | 85 | 1013.9 |
| 20260507002703 | 66 | 208 | 2.0 | 6.0 | 0.00 | 0.12 | 0.12 | 84 | 1013.4 |
| 20260507002202 | 66 | 219 | 2.0 | 6.0 | 0.00 | 0.12 | 0.12 | 84 | 1013.5 |
| 20260507001703 | 67 | 202 | 2.0 | 3.0 | 0.00 | 0.12 | 0.12 | 83 | 1013.0 |
| 20260507001203 | 67 | 200 | 2.0 | 5.0 | 0.00 | 0.12 | 0.12 | 83 | 1012.9 |
| 20260507000204 | 67 | 203 | 1.0 | 5.0 | 0.00 | 0.12 | 0.12 | 82 | 1012.6 |
| 20260506235703 | 67 | 257 | 1.0 | 3.0 | 0.00 | 0.12 | 0.12 | 81 | 1012.6 |
| 20260506235202 | 67 | 186 | 5.0 | 9.0 | 0.00 | 0.12 | 0.12 | 80 | 1012.1 |
| 20260506234703 | 68 | 169 | 2.0 | 5.0 | 0.00 | 0.12 | 0.12 | 80 | 1012.7 |
| 20260506234203 | 68 | 195 | 3.0 | 9.0 | 0.00 | 0.12 | 0.12 | 80 | 1012.6 |
| 20260506233703 | 68 | 233 | 2.0 | 7.0 | 0.00 | 0.12 | 0.12 | 80 | 1012.8 |
| 20260506233203 | 68 | 201 | 5.0 | 12.0 | 0.00 | 0.12 | 0.12 | 79 | 1012.7 |
| 20260506232703 | 68 | 198 | 3.0 | 8.0 | 0.00 | 0.12 | 0.12 | 79 | 1012.8 |
| 20260506232203 | 69 | 195 | 3.0 | 9.0 | 0.00 | 0.12 | 0.12 | 79 | 1012.5 |
| 20260506231703 | 69 | 243 | 1.0 | 6.0 | 0.00 | 0.12 | 0.12 | 80 | 1012.4 |
| 20260506231203 | 69 | 213 | 2.0 | 8.0 | 0.00 | 0.12 | 0.12 | 79 | 1012.4 |
| 20260506230703 | 69 | 182 | 3.0 | 8.0 | 0.00 | 0.12 | 0.12 | 79 | 1012.4 |
| 20260506230203 | 69 | 206 | 3.0 | 9.0 | 0.00 | 0.12 | 0.12 | 79 | 1012.6 |
| 20260506225703 | 69 | 242 | 3.0 | 7.0 | 0.00 | 0.12 | 0.12 | 79 | 1012.8 |
| 20260506225202 | 70 | 212 | 3.0 | 7.0 | 0.00 | 0.12 | 0.12 | 79 | 1012.3 |
| 20260506224203 | 70 | 292 | 2.0 | 6.0 | 0.00 | 0.12 | 0.12 | 79 | 1012.2 |
| 20260506223703 | 70 | 218 | 1.0 | 3.0 | 0.00 | 0.12 | 0.12 | 79 | 1012.4 |
| 20260506223203 | 70 | 238 | 2.0 | 6.0 | 0.00 | 0.12 | 0.12 | 78 | 1012.6 |
| 20260506222703 | 71 | 275 | 2.0 | 6.0 | 0.00 | 0.12 | 0.12 | 77 | 1012.7 |
| 20260506222203 | 71 | 185 | 1.0 | 5.0 | 0.00 | 0.12 | 0.12 | 78 | 1012.6 |
| 20260506221703 | 71 | 217 | 2.0 | 5.0 | 0.00 | 0.12 | 0.12 | 77 | 1012.5 |
| 20260506221203 | 71 | 264 | 1.0 | 3.0 | 0.00 | 0.12 | 0.12 | 77 | 1012.3 |
| 20260506220703 | 71 | 280 | 1.0 | 2.0 | 0.00 | 0.12 | 0.12 | 78 | 1012.0 |
| 20260506220203 | 71 | 227 | 1.0 | 3.0 | 0.00 | 0.12 | 0.12 | 77 | 1012.0 |
| 20260506215702 | 71 | 295 | 1.0 | 3.0 | 0.00 | 0.12 | 0.12 | 77 | 1012.0 |
| 20260506215202 | 71 | 322 | 1.0 | 3.0 | 0.00 | 0.12 | 0.12 | 77 | 1012.1 |
| 20260506213703 | 70 | 169 | 1.0 | 6.0 | 0.00 | 0.12 | 0.12 | 77 | 1012.3 |
| 20260506213204 | 70 | 239 | 1.0 | 6.0 | 0.00 | 0.12 | 0.12 | 76 | 1012.3 |
| 20260506212703 | 70 | 202 | 2.0 | 7.0 | 0.00 | 0.12 | 0.12 | 76 | 1012.5 |
| 20260506211703 | 71 | 189 | 4.0 | 9.0 | 0.00 | 0.12 | 0.12 | 74 | 1012.8 |
| 20260506211203 | 71 | 256 | 3.0 | 9.0 | 0.00 | 0.12 | 0.12 | 74 | 1012.8 |
| 20260506210703 | 71 | 216 | 3.0 | 15.0 | 0.00 | 0.12 | 0.12 | 73 | 1012.6 |
| 20260506210203 | 72 | 290 | 2.0 | 7.0 | 0.00 | 0.12 | 0.12 | 74 | 1012.6 |
| 20260506205703 | 72 | 207 | 5.0 | 15.0 | 0.00 | 0.12 | 0.12 | 73 | 1012.6 |
| 20260506205203 | 72 | 236 | 6.0 | 15.0 | 0.00 | 0.12 | 0.12 | 73 | 1012.6 |
| 20260506204703 | 72 | 277 | 2.0 | 8.0 | 0.00 | 0.12 | 0.12 | 74 | 1012.7 |
| 20260506204203 | 72 | 224 | 3.0 | 7.0 | 0.00 | 0.12 | 0.12 | 75 | 1012.9 |
| 20260506203703 | 72 | 230 | 2.0 | 5.0 | 0.00 | 0.12 | 0.12 | 75 | 1012.8 |
| 20260506203203 | 71 | 264 | 2.0 | 8.0 | 0.00 | 0.12 | 0.12 | 76 | 1012.9 |
| 20260506202702 | 71 | 30 | 2.0 | 12.0 | 0.00 | 0.12 | 0.12 | 75 | 1012.9 |
| 20260506202203 | 72 | 200 | 3.0 | 9.0 | 0.00 | 0.12 | 0.12 | 74 | 1012.8 |
| 20260506201703 | 72 | 256 | 3.0 | 8.0 | 0.00 | 0.12 | 0.12 | 74 | 1012.8 |
| 20260506200203 | 71 | 299 | 2.0 | 3.0 | 0.00 | 0.12 | 0.12 | 75 | 1012.7 |
| 20260506195703 | 71 | 240 | 2.0 | 5.0 | 0.00 | 0.12 | 0.12 | 74 | 1012.8 |
| 20260506194702 | 72 | 276 | 4.0 | 8.0 | 0.00 | 0.12 | 0.12 | 73 | 1012.7 |
| 20260506193203 | 72 | 190 | 2.0 | 9.0 | 0.00 | 0.12 | 0.12 | 74 | 1012.9 |
| 20260506192703 | 72 | 221 | 3.0 | 12.0 | 0.00 | 0.12 | 0.12 | 73 | 1013.2 |
| 20260506192203 | 72 | 240 | 5.0 | 10.0 | 0.00 | 0.12 | 0.12 | 72 | 1013.4 |
| 20260506191703 | 72 | 220 | 5.0 | 12.0 | 0.00 | 0.12 | 0.12 | 72 | 1013.4 |
| 20260506190203 | 72 | 254 | 3.0 | 7.0 | 0.00 | 0.12 | 0.12 | 74 | 1013.2 |
| 20260506185703 | 72 | 226 | 4.0 | 10.0 | 0.00 | 0.12 | 0.12 | 73 | 1013.0 |
| 20260506185203 | 72 | 232 | 4.0 | 9.0 | 0.00 | 0.12 | 0.12 | 74 | 1013.0 |
| 20260506184703 | 72 | 201 | 2.0 | 7.0 | 0.00 | 0.12 | 0.12 | 75 | 1012.9 |
| 20260506184203 | 72 | 177 | 2.0 | 10.0 | 0.00 | 0.12 | 0.12 | 75 | 1012.9 |
| 20260506183702 | 71 | 199 | 4.0 | 9.0 | 0.00 | 0.12 | 0.12 | 74 | 1012.8 |
| 20260506183204 | 71 | 227 | 5.0 | 12.0 | 0.00 | 0.12 | 0.12 | 74 | 1012.8 |
| 20260506182703 | 71 | 249 | 3.0 | 10.0 | 0.00 | 0.12 | 0.12 | 75 | 1012.7 |
| 20260506182202 | 71 | 221 | 6.0 | 9.0 | 0.00 | 0.12 | 0.12 | 75 | 1012.8 |
| 20260506181703 | 71 | 248 | 5.0 | 9.0 | 0.00 | 0.12 | 0.12 | 76 | 1012.8 |
| 20260506181203 | 71 | 215 | 2.0 | 5.0 | 0.00 | 0.12 | 0.12 | 78 | 1012.8 |
| 20260506180703 | 71 | 277 | 3.0 | 8.0 | 0.00 | 0.12 | 0.12 | 79 | 1012.9 |
| 20260506180203 | 70 | 227 | 3.0 | 9.0 | 0.00 | 0.12 | 0.12 | 78 | 1012.7 |
| 20260506175703 | 70 | 253 | 3.0 | 8.0 | 0.00 | 0.12 | 0.12 | 79 | 1012.8 |
| 20260506175203 | 69 | 232 | 3.0 | 10.0 | 0.00 | 0.12 | 0.12 | 80 | 1012.8 |
| 20260506174703 | 69 | 249 | 3.0 | 10.0 | 0.00 | 0.12 | 0.12 | 80 | 1012.8 |
| 20260506174203 | 69 | 290 | 4.0 | 9.0 | 0.00 | 0.12 | 0.12 | 80 | 1012.9 |
| 20260506173703 | 69 | 194 | 3.0 | 10.0 | 0.00 | 0.12 | 0.12 | 82 | 1012.9 |
| 20260506173203 | 69 | 189 | 2.0 | 3.0 | 0.00 | 0.12 | 0.12 | 83 | 1012.9 |
| 20260506172703 | 68 | 237 | 2.0 | 6.0 | 0.00 | 0.12 | 0.12 | 84 | 1012.9 |
| 20260506171703 | 67 | 183 | 3.0 | 7.0 | 0.00 | 0.12 | 0.12 | 87 | 1013.2 |
| 20260506171203 | 67 | 175 | 1.0 | 8.0 | 0.01 | 0.12 | 0.12 | 86 | 1013.4 |
| 20260506170703 | 67 | 241 | 2.0 | 7.0 | 0.01 | 0.12 | 0.12 | 88 | 1013.2 |
| 20260506170203 | 66 | 222 | 2.0 | 8.0 | 0.02 | 0.12 | 0.12 | 90 | 1013.3 |
| 20260506165703 | 66 | 317 | 2.0 | 3.0 | 0.02 | 0.12 | 0.12 | 90 | 1013.4 |
| 20260506164703 | 66 | 168 | 3.0 | 8.0 | 0.03 | 0.12 | 0.12 | 90 | 1013.3 |
| 20260506164203 | 65 | 199 | 3.0 | 8.0 | 0.04 | 0.12 | 0.12 | 90 | 1013.3 |
| 20260506163703 | 65 | 222 | 3.0 | 8.0 | 0.04 | 0.12 | 0.12 | 89 | 1013.3 |
| 20260506162203 | 65 | 220 | 1.0 | 10.0 | 0.05 | 0.12 | 0.12 | 89 | 1014.2 |
| 20260506161703 | 65 | 242 | 2.0 | 5.0 | 0.05 | 0.12 | 0.12 | 89 | 1014.2 |
| 20260506161203 | 65 | 193 | 3.0 | 9.0 | 0.04 | 0.11 | 0.11 | 89 | 1014.2 |
| 20260506160703 | 65 | 196 | 2.0 | 7.0 | 0.04 | 0.11 | 0.11 | 89 | 1014.4 |
| 20260506160203 | 64 | 208 | 4.0 | 12.0 | 0.03 | 0.10 | 0.10 | 89 | 1014.5 |
| 20260506155703 | 64 | 226 | 5.0 | 12.0 | 0.03 | 0.10 | 0.10 | 90 | 1014.4 |
| 20260506155203 | 64 | 200 | 3.0 | 8.0 | 0.03 | 0.10 | 0.10 | 91 | 1014.5 |
| 20260506154703 | 64 | 222 | 4.0 | 9.0 | 0.02 | 0.09 | 0.09 | 90 | 1014.6 |
| 20260506154202 | 64 | 256 | 4.0 | 13.0 | 0.01 | 0.08 | 0.08 | 91 | 1014.6 |
| 20260506153703 | 64 | 157 | 3.0 | 9.0 | 0.01 | 0.08 | 0.08 | 91 | 1014.6 |
| 20260506153203 | 63 | 191 | 3.0 | 7.0 | 0.01 | 0.08 | 0.08 | 91 | 1014.9 |
| 20260506152703 | 63 | 294 | 1.0 | 3.0 | 0.00 | 0.07 | 0.07 | 90 | 1014.7 |
| 20260506152203 | 63 | 317 | 1.0 | 2.0 | 0.00 | 0.07 | 0.07 | 90 | 1014.6 |
| 20260506151703 | 63 | 3 | 1.0 | 2.0 | 0.00 | 0.07 | 0.07 | 91 | 1014.4 |
| 20260506150203 | 62 | 45 | 1.0 | 2.0 | 0.00 | 0.07 | 0.07 | 91 | 1013.9 |
| 20260506145203 | 62 | 160 | 1.0 | 2.0 | 0.00 | 0.07 | 0.07 | 91 | 1013.7 |
| 20260506144703 | 62 | 163 | 1.0 | 3.0 | 0.01 | 0.07 | 0.07 | 91 | 1013.6 |
| 20260506144203 | 62 | 144 | 1.0 | 3.0 | 0.01 | 0.07 | 0.07 | 91 | 1013.4 |
| 20260506143703 | 61 | 176 | 1.0 | 3.0 | 0.01 | 0.07 | 0.07 | 91 | 1013.0 |
| 20260506143203 | 61 | 161 | 1.0 | 3.0 | 0.01 | 0.07 | 0.07 | 91 | 1013.1 |
| 20260506142703 | 61 | 186 | 1.0 | 2.0 | 0.01 | 0.07 | 0.07 | 91 | 1013.1 |
| 20260506142203 | 61 | 150 | 1.0 | 2.0 | 0.01 | 0.07 | 0.07 | 91 | 1013.1 |
| 20260506141702 | 61 | 104 | 0.0 | 2.0 | 0.01 | 0.07 | 0.07 | 91 | 1013.0 |
| 20260506141203 | 61 | 134 | 0.0 | 2.0 | 0.01 | 0.07 | 0.07 | 91 | 1013.1 |
| 20260506140203 | 60 | 255 | 1.0 | 2.0 | 0.01 | 0.07 | 0.07 | 91 | 1013.4 |
| 20260506135203 | 60 | 234 | 1.0 | 2.0 | 0.01 | 0.07 | 0.07 | 91 | 1013.5 |
| 20260506134703 | 60 | 280 | 0.0 | 1.0 | 0.00 | 0.06 | 0.06 | 91 | 1013.4 |
| 20260506134203 | 60 | 322 | 1.0 | 2.0 | 0.01 | 0.06 | 0.06 | 91 | 1013.4 |
| 20260506133703 | 60 | 283 | 1.0 | 2.0 | 0.01 | 0.06 | 0.06 | 90 | 1013.2 |
| 20260506133203 | 60 | 0 | 1.0 | 2.0 | 0.01 | 0.06 | 0.06 | 90 | 1013.1 |
| 20260506132703 | 60 | 28 | 2.0 | 3.0 | 0.01 | 0.06 | 0.06 | 91 | 1013.1 |
| 20260506132204 | 60 | 348 | 1.0 | 2.0 | 0.01 | 0.06 | 0.06 | 90 | 1012.9 |
| 20260506131703 | 60 | 142 | 1.0 | 1.0 | 0.01 | 0.06 | 0.06 | 90 | 1012.9 |
| 20260506131203 | 60 | 46 | 1.0 | 3.0 | 0.01 | 0.06 | 0.06 | 90 | 1012.8 |
| 20260506130703 | 60 | 169 | 1.0 | 2.0 | 0.01 | 0.06 | 0.06 | 90 | 1012.7 |
| 20260506130203 | 60 | 24 | 1.0 | 2.0 | 0.01 | 0.06 | 0.06 | 90 | 1012.7 |
| 20260506125703 | 59 | 33 | 1.0 | 3.0 | 0.02 | 0.06 | 0.06 | 90 | 1012.9 |
| 20260506125203 | 59 | 263 | 1.0 | 3.0 | 0.03 | 0.06 | 0.06 | 90 | 1013.2 |
| 20260506124703 | 59 | 353 | 1.0 | 3.0 | 0.04 | 0.06 | 0.06 | 90 | 1013.2 |
| 20260506124203 | 59 | 307 | 1.0 | 2.0 | 0.03 | 0.05 | 0.05 | 90 | 1012.9 |
| 20260506123204 | 59 | 100 | 1.0 | 2.0 | 0.03 | 0.05 | 0.05 | 90 | 1012.6 |
| 20260506122703 | 59 | 7 | 1.0 | 2.0 | 0.04 | 0.05 | 0.05 | 89 | 1012.6 |
| 20260506122203 | 59 | 336 | 1.0 | 2.0 | 0.04 | 0.05 | 0.05 | 89 | 1012.5 |
| 20260506120703 | 60 | 325 | 1.0 | 2.0 | 0.04 | 0.05 | 0.05 | 88 | 1012.4 |